Regional Weather Roundup
Issued by NWS

Home | Current Version | Previous Version | Graphics & Text | Print | Product List | Glossary On
Versions: 1 2 3 4 5 6 7 8 9 10 11 12 13 14 15 16 17 18 19 20 21 22 23 24 25 26 27 28 29 30 31 32 33 34 35 36 37 38 39 40 41 42 43 44 45 46 47 48 49 50
000
ASUS43 KIND 231009
RWRIN

WEATHER ROUNDUP FOR INDIANA
NATIONAL WEATHER SERVICE INDIANAPOLIS IN
600 AM EDT MON OCT 23 2017

NOTE: "FAIR" INDICATES FEW OR NO CLOUDS BELOW 12,000 FEET WITH NO
SIGNIFICANT WEATHER AND/OR OBSTRUCTIONS TO VISIBILITY.

* - STATION DOES NOT REPORT WEATHER SUCH AS PRECIPITATION OR FOG.

+ - STATION NOT QUALITY CONTROLLED BY THE NATIONAL WEATHER SERVICE.
    USE DATA WITH CAUTION...ESPECIALLY DEWPOINT AND RELATIVE
    HUMIDITY OBSERVATIONS.

INZ001>003-010>013-019-020-231100-
NORTHWEST INDIANA

CITY           SKY/WX    TMP DP  RH WIND       PRES   REMARKS
GARY /AIRPORT/ RAIN      55  54  94 N12G24    29.91F
KNOX *+        CLOUDY    55  55 100 N5        29.87F
LA PORTE +     LGT RAIN  55  55  97 N7        29.88F
MICHIGAN CITY+ LGT RAIN  55  55 100 N7        29.89F
MONTICELLO +   RAIN      58  56  95 NE6       29.82F
RENSSELAER +   RAIN      55  52  88 N10       29.84F
VALPARAISO     LGT RAIN  57  56  96 N9        29.86F FOG

$$

LMZ046-743>745-231100-
SOUTHERN LAKE MICHIGAN

STATION/POSITION TIME  TEMP    WIND        PRES    WAVE
                       AIR SEA DIR/SP/G            HT
                 (UTC) (F)     (DEG/KT/KT) (MB)    (FT)
BURNS HARBOR     0940   57      30/ 11/ 15 1013.2S
MICHIGAN CITY    0940   56      20/ 13/ 15   N/A
5NW MICH CITY    1000   56 58   10/ 14/ 16   N/A     4

$$

INZ004-005-014>016-021>024-231100-
NORTH CENTRAL INDIANA

CITY           SKY/WX    TMP DP  RH WIND       PRES   REMARKS
GOSHEN         LGT RAIN  60  57  89 CALM      29.87F
LOGANSPORT +   LGT RAIN  61  57  88 E5        29.85F
PERU/GRISSOM   CLOUDY    63  59  88 E5        29.84F
SOUTH BEND     LGT RAIN  56  56 100 N6        29.88F
WARSAW +       LGT RAIN  61  55  82 CALM      29.87F

$$

INZ006>009-017-018-025>027-231100-
NORTHEAST INDIANA

CITY           SKY/WX    TMP DP  RH WIND       PRES   REMARKS
AUBURN +       CLOUDY    63  50  63 CALM      29.90F
FORT WAYNE     CLOUDY    63  51  65 S5        29.89F
HUNTINGTON +   CLOUDY    64  53  65 SE6       29.88F
KENDALLVILLE + CLOUDY    62  52  68 SE6       29.90F

$$

INZ028-029-035-036-043>045-051>053-231100-
WEST CENTRAL INDIANA

CITY           SKY/WX    TMP DP  RH WIND       PRES   REMARKS
GREENCASTLE +  LGT RAIN  63  61  94 SE10      29.82F
LAFAYETTE      LGT RAIN  59  59 100 E7        29.81F
TERRE HAUTE    LGT RAIN  65  62  90 SE14      29.79F

$$

INZ030>032-037>040-046>048-054>057-064-065-231100-
CENTRAL INDIANA

CITY           SKY/WX    TMP DP  RH WIND       PRES   REMARKS
CP ATTERBURY + LGT RAIN  61  57  88 SE6       29.85F
FISHERS *+     CLOUDY    63  59  88 SE6       29.86
FRANKFORT +    HVY RAIN  64  61  92 SE3       29.85F
GREENWOOD *+   CLOUDY    68  59  73 SE8       29.87S
INDIANAPOLIS   LGT RAIN  63  59  87 SE10      29.83F
-EAGLE CREEK   RAIN      65  58  78 SE6       29.84F
KOKOMO +       CLOUDY    63  57  81 E7        29.85F
MT COMFORT *+  CLOUDY    63  57  82 SE9       29.87S
SHELBYVILLE    CLOUDY    64  54  69 SE10      29.86F
ZIONSVILLE +   LGT RAIN  63  57  82 SE8       29.85F

$$

INZ033-034-041-042-049-050-058-059-231100-
EAST CENTRAL INDIANA

CITY           SKY/WX    TMP DP  RH WIND       PRES   REMARKS
MUNCIE         CLOUDY    67  51  56 SE8       29.88F
RICHMOND +     LGT RAIN  59  54  82 SE7       29.92F

$$

INZ060-061-067>069-081>083-085>088-231100-
SOUTHWEST INDIANA

CITY           SKY/WX    TMP DP  RH WIND       PRES   REMARKS
EVANSVILLE     LGT RAIN  57  55  93 SW7       29.84R
HUNTINGBURG +  LGT RAIN  64  63  94 S5        29.81F
WASHINGTON +   RAIN     N/A N/A N/A S8        29.80S

$$

INZ062-063-066-070>080-084-089>092-231100-
SOUTH CENTRAL AND SOUTHEAST INDIANA

CITY           SKY/WX    TMP DP  RH WIND       PRES   REMARKS
BEDFORD +      LGT RAIN  63  59  88 E8        29.81F
BLOOMINGTON    CLOUDY    64  60  87 SE10      29.82F
MADISON *+     CLOUDY    63  55  77 SE10      29.89F
NORTH VERNON + RAIN      61  55  82 SE7       29.88F
SEYMOUR +      LGT RAIN  64  57  77 SE10      29.84F

$$





USA.gov is the U.S. government's official web portal to all federal, state and local government web resources and services.